Miscellaneous Local Product
Issued by NWS Hastings, NE

Home | Current Version | Previous Version | Graphics & Text | Print | Product List | Glossary On
Versions: 1 2 3 4 5 6 7 8 9 10 11 12 13 14 15 16 17 18 19 20 21 22 23 24 25 26 27 28 29 30 31 32 33 34 35 36 37 38 39 40 41 42 43 44 45 46 47 48 49 50
000
AXUS43 KGID 191002
MISGRI

GID CWA HOURLY WEATHER ROUNDUP
NATIONAL WEATHER SERVICE HASTINGS NE
500 AM CDT SAT AUG 19 2017

NOTE: "FAIR" INDICATES FEW OR NO CLOUDS BELOW 12,000 FEET WITH NO
SIGNIFICANT WEATHER AND/OR OBSTRUCTIONS TO VISIBILITY.

...SOUTH CENTRAL NEBRASKA...

CITY           SKY/WX    TMP DP  RH WIND       PRES   REMARKS
GRAND ISLAND   CLEAR     61  60  97 CALM      30.00S
HASTINGS       CLEAR     61  58  90 NE5       30.00F
KEARNEY        CLEAR     64  60  87 CALM      30.01F
ORD            CLEAR     56  54  93 CALM      29.98F
YORK           CLEAR     59  59 100 CALM      29.99S
AURORA         CLEAR     60  59  98 CALM      29.99S
LEXINGTON      CLEAR     59  57  93 CALM      30.01F
HOLDREGE       CLEAR     58  56  91 CALM      30.01F
HEBRON         CLEAR     63  61  95 CALM      29.98S

...NEBRASKA PANHANDLE...

CITY           SKY/WX    TMP DP  RH WIND       PRES   REMARKS
CHADRON        CLEAR     68  48  48 S9        29.92F
ALLIANCE       CLEAR     57  50  77 SE9       29.99F
SCOTTSBLUFF    CLEAR     60  51  72 NE8       29.99F
SIDNEY         CLEAR     62  53  72 S8        30.06S

...WESTERN AND NORTH CENTRAL NEBRASKA...

CITY           SKY/WX    TMP DP  RH WIND       PRES   REMARKS
VALENTINE      CLEAR     63  54  72 S8        29.97F
AINSWORTH      CLEAR     59  57  94 S6        29.99F
ONEILL         CLEAR     58  58 100 CALM      29.99F
BROKEN BOW     CLEAR     57  55  93 CALM      30.01F
IMPERIAL       CLEAR     59  53  80 S3        30.04S
NORTH PLATTE   CLEAR     58  56  93 E3        30.01F
MCCOOK         CLEAR     60  57  89 W3        30.00F

...EASTERN NEBRASKA...

CITY           SKY/WX    TMP DP  RH WIND       PRES   REMARKS
NORFOLK        CLEAR     55  54  96 CALM      29.98R
SO SIOUX CITY  CLEAR     58  57  97 NW3       29.96R
TEKAMAH        CLEAR     58  55  90 NW5       29.95S
COLUMBUS       CLEAR     58  57  97 CALM      29.98S
ALBION         CLEAR     56  55  97 CALM      29.99S
OMAHA EPPLEY   CLEAR     63  58  83 N7        29.95R
OFFUTT AFB     CLEAR     57  56  95 CALM      29.94R
MILLARD        CLEAR     64  60  84 NW3       29.96R
LINCOLN        CLEAR     62  59  90 N3        29.97S
NEBRASKA CITY  CLEAR     64  64 100 CALM      29.96S
BEATRICE       CLEAR     61  60  97 CALM      29.97S
FALLS CITY     CLEAR     63  62  97 NW6       29.94S

...NORTHERN KANSAS...

CITY           SKY/WX    TMP DP  RH WIND       PRES   REMARKS
GOODLAND       CLEAR     65  56  72 S12       30.05F
HILL CITY      CLEAR     61  58  90 W6        30.01S
NORTON         SUNNY     57  52  82 CALM      30.00
PHILLIPSBURG   CLEAR     57  57 100 NW3       29.99S
SMITH CENTER   MOCLDY    61  61 100 N5        29.99F
HAYS           CLEAR     60  58  92 W6        29.99S
RUSSELL        CLEAR     66  64  93 S6        29.96F
CONCORDIA      CLEAR     64  64 100 CALM      29.96F
SALINA         CLEAR     69  65  86 S3        29.94F
TOPEKA         CLEAR     67  66  97 CALM      29.93S



USA.gov is the U.S. government's official web portal to all federal, state and local government web resources and services.